Weather Roundup
Issued by NWS Springfield, MO

Home | Current Version | Previous Version | Text Only | Print | Product List | Glossary On
Versions: 1 2 3 4 5 6 7 8 9 10 11 12 13 14 15 16 17 18 19 20 21 22 23 24 25 26 27 28 29 30 31 32 33 34 35 36 37 38 39 40 41 42 43 44 45 46 47 48 49 50
000
NZUS99 KSGF 291057
HRRSGF

HOURLY WEATHER
NATIONAL WEATHER SERVICE SPRINGFIELD MO
600 AM CDT SUN MAY 29 2016

......SGF CWA......

CITY           SKY/WX    TMP DP  RH WIND       PRES   REMARKS
SPRINGFIELD    CLEAR     60  58  92 S3        30.09R FOG
JOPLIN         CLEAR     63  62  97 S6        30.09R
WEST PLAINS    CLEAR     63  61  93 CALM      30.11R
ROLLA          CLEAR     61  59  93 W5        30.07R

......SURROUNDING SGF CWA......

CITY           SKY/WX    TMP DP  RH WIND       PRES   REMARKS
CHANUTE        CLEAR     61  59  93 CALM      30.08R FOG
PARSONS        FOG       60  59  96 CALM      30.09R VSB 3/4
COFFEYVILLE    CLEAR     62  60  93 CALM      30.07R
EMPORIA        CLEAR     58  56  93 S7        30.08R
HARRISON AR    CLEAR     63  62  97 CALM      30.12R

......KANSAS AND MISSOURI......

CITY           SKY/WX    TMP DP  RH WIND       PRES   REMARKS
KANSAS CTY INT CLEAR     59  57  93 SW6       30.05R
SEDALIA        CLEAR     64  61  90 SW6       30.08R
ST JOSEPH      CLEAR     59  58  96 SW3       30.04R
ST LOUIS       PTCLDY    67  60  78 CALM      30.06R
WICHITA        PTCLDY    60  57  89 S3        30.08R
TOPEKA         CLEAR     61  57  87 S6        30.05R
OLATHE         CLEAR     58  57  97 S3        30.07R

......TENNESSEE......

CITY           SKY/WX    TMP DP  RH WIND       PRES   REMARKS
MEMPHIS        NOT AVBL
NASHVILLE      PTCLDY    65  62  90 CALM      30.11R FOG

......ARKANSAS.......

CITY           SKY/WX    TMP DP  RH WIND       PRES   REMARKS
FAYETTEVILLE   CLOUDY    60  60 100 CALM      30.11S FOG
FT SMITH       MOCLDY    68  65  90 CALM      30.09R
LITTLE ROCK    MOCLDY    68  65  90 CALM      30.10R

......OKLAHOMA.......

CITY           SKY/WX    TMP DP  RH WIND       PRES   REMARKS
TULSA          CLOUDY    69  68  96 S3        30.05R
PONCA CITY     CLEAR     64  62  93 CALM      30.08R
MCALESTER      TSTM      68  57  68 E8        30.09F
OKLAHOMA CITY  MOCLDY    67  66  97 SE6       30.07R FOG

......IOWA............

CITY           SKY/WX    TMP DP  RH WIND       PRES   REMARKS
DES MOINES     NOT AVBL
QUAD CITIES    CLEAR     66  58  75 SW10      29.95R

......ILLINOIS........

CITY           SKY/WX    TMP DP  RH WIND       PRES   REMARKS
QUINCY         NOT AVBL
CHICAGO        PTCLDY    64  61  90 SW8       29.97R




USA.gov is the U.S. government's official web portal to all federal, state and local government web resources and services.